This is the latest recevied weather packets stored in our database for station/object K8WEH. If no packets are shown the sender has not sent any weather packets the latest 1 day(s).
| Time | Temp. | Humidity | Pressure | Rain* | Wind** | Luminosity | Snow |
|---|---|---|---|---|---|---|---|
| 1777987236 | 17.22° C | 66% | 1011.5 hPa | 0 mm | 0.45 m/s, 121° | - | - |
| 1777986938 | 17.22° C | 65% | 1011.4 hPa | 0 mm | 0.45 m/s, 151° | - | - |
| 1777986636 | 17.22° C | 64% | 1011.4 hPa | 0 mm | 1.34 m/s, 217° | - | - |
| 1777986335 | 17.22° C | 65% | 1011.5 hPa | 0 mm | 0.45 m/s, 153° | - | - |
| 1777986034 | 17.22° C | 64% | 1011.3 hPa | 0 mm | 0.89 m/s, 117° | - | - |
| 1777985734 | 17.22° C | 64% | 1011.3 hPa | 0 mm | 0.45 m/s, 180° | - | - |
| 1777985434 | 17.22° C | 63% | 1011.5 hPa | 0 mm | 1.34 m/s, 153° | - | - |
| 1777985134 | 17.78° C | 63% | 1011.5 hPa | 0 mm | 0.45 m/s, 242° | - | - |
| 1777984834 | 17.22° C | 63% | 1011.6 hPa | 0 mm | 0.45 m/s, 140° | - | - |
| 1777984534 | 17.22° C | 63% | 1011.6 hPa | 0 mm | 1.34 m/s, 119° | - | - |
| 1777984234 | 17.22° C | 64% | 1011.6 hPa | 0 mm | 0.45 m/s, 232° | - | - |
| 1777983933 | 17.22° C | 63% | 1011.7 hPa | 0 mm | 1.34 m/s, 103° | - | - |
| 1777983633 | 17.22° C | 64% | 1011.9 hPa | 0 mm | 0.45 m/s, 241° | - | - |
| 1777983338 | 17.22° C | 63% | 1011.9 hPa | 0 mm | 1.34 m/s, 146° | - | - |
| 1777983032 | 17.22° C | 63% | 1012.1 hPa | 0 mm | 0.45 m/s, 172° | - | - |
| 1777982731 | 17.22° C | 63% | 1012.1 hPa | 0 mm | 0.45 m/s, 189° | - | - |
| 1777982456 | 17.22° C | 62% | 1012.1 hPa | 0 mm | 0.89 m/s, 130° | - | - |
| 1777982132 | 17.22° C | 62% | 1012.1 hPa | 0 mm | 0.45 m/s, 209° | - | - |
| 1777981830 | 17.22° C | 62% | 1012.1 hPa | 0 mm | 1.34 m/s, 112° | - | - |
| 1777981531 | 17.22° C | 61% | 1011.9 hPa | 0 mm | 1.34 m/s, 165° | - | - |
| 1777981231 | 17.22° C | 61% | 1012.1 hPa | 0 mm | 0.89 m/s, 144° | - | - |
| 1777980928 | 17.78° C | 61% | 1011.7 hPa | 0 mm | 0.45 m/s, 122° | - | - |
| 1777980628 | 17.78° C | 60% | 1011.7 hPa | 0 mm | 0.89 m/s, 221° | - | - |
| 1777980326 | 17.78° C | 60% | 1011.6 hPa | 0 mm | 0.89 m/s, 72° | - | - |
| 1777980027 | 17.78° C | 59% | 1011.3 hPa | 0 mm | 1.34 m/s, 212° | - | - |
* Rain latest hour (hover to see other rain measurements)
** Current wind speed in m/s (hover to see current wind gust speed)